Regional Weather Roundup
Issued by NWS

Home | Current Version | Previous Version | Graphics & Text | Print | Product List | Glossary On
Versions: 1 2 3 4 5 6 7 8 9 10 11 12 13 14 15 16 17 18 19 20 21 22 23 24 25 26 27
000
ASUS45 KCYS 211910
RWRWY

WYOMING REGIONAL WEATHER ROUNDUP
NATIONAL WEATHER SERVICE CHEYENNE WY
100 PM MDT WED JUN 21 2017

NOTE:  "FAIR" INDICATES FEW OR NO CLOUDS BELOW 12,000 FEET
WITH NO SIGNIFICANT WEATHER AND/OR OBSTRUCTIONS TO VISIBILITY.

WYZ001-212000-
YELLOWSTONE NATIONAL PARK

CITY           SKY/WX    TMP DP  RH WIND       PRES   REMARKS
LK YELLOWSTONE   N/A     72  32  23 W12G22    30.20F
W YELLOWSTONE  NOT AVBL

$$
WYZ002>013-054>058-071-098>099-212000-
NORTHERN WYOMING

CITY           SKY/WX    TMP DP  RH WIND       PRES   REMARKS
JACKSON        MOSUNNY   77  43  29 SW17G35   30.13S
CODY           FAIR      77  48  35 E5        29.99F
GREYBULL       FAIR      86  45  23 W7        29.89F
WORLAND        FAIR      86  48  26 VRB3      29.90F
SHERIDAN       FAIR      78  49  35 VRB3      29.95F
BUFFALO        FAIR      76  50  40 N7        30.02F
GILLETTE       FAIR      83  48  29 NW10G18   29.95F
NEWCASTLE      FAIR      84  45  24 NW13G18   29.91F

$$
WYZ014>020-022>026-101>103-212000-
CENTRAL WYOMING

CITY           SKY/WX    TMP DP  RH WIND       PRES   REMARKS
BIG PINEY      FAIR      83  40  21 W21       30.17F
PINEDALE       FAIR      79  41  25 NW17G29   30.18F
DUBOIS         FAIR      77  34  20 NW30G43   30.12S
LANDER         FAIR      88  41  19 NW16G25   30.00F
RIVERTON       FAIR      87  39  18 MISG      29.99F
CASPER         FAIR      89  38  16 NW15G28   29.98F
DOUGLAS        FAIR      86  49  27 N5        29.98F

$$
WYZ021-027>030-104>119-212000-
SOUTHERN WYOMING

CITY           SKY/WX    TMP DP  RH WIND       PRES   REMARKS
EVANSTON       FAIR      83  45  26 SW15      30.20F
KEMMERER         N/A     79  41  25 W16G22    30.21F
FORT BRIDGER   FAIR      88  32  13 W16G25    30.21F
ROCK SPRINGS   FAIR      85  35  16 W14G25    30.15F
DIXON          FAIR      88  33  13 W7G20     30.18F
RAWLINS        FAIR      85  34  16 W18G31    30.15F
SARATOGA       FAIR      84  32  15 W17G24    30.19F
LARAMIE        FAIR      81  33  17 NW24G33   30.17F
CHEYENNE       FAIR      87  31  13 NW20G36   30.08F
TORRINGTON     FAIR      91  43  18 N9        29.90F
PINE BLUFFS    FAIR      91  30  11 W17G29    30.00F

$$




USA.gov is the U.S. government's official web portal to all federal, state and local government web resources and services.